BEIDOU-2 G3

Last updated on Mon Oct 14 2024 00:02:38 GMT+0000 (Coordinated Universal Time)

1 36590U 10024A 24287.56532184 -.00000134 00000+0 00000+0 0 9994 2 36590 3.0731 61.7653 0004188 343.3729 260.6133 1.00269785 52634
UTC large
Height (km)
Speed (km/s)
/
Latitude / Longitude
Inclination (degrees)
Orbital Period (minutes)
Azimuth
Elevation
Range (km)
Doppler Factor

Next 0 passes for location: London (51.5072 / 0.1276)

Sorry there are no passes over London.